Location: Festilli
(46.4000°N, 11.6667°E)
Time: 19:17:36
(UTC+00:00)

Cosmos 2218 Rocket - Pass Details

Date: 03 March 2021
Orbit: 955 x 1007 km, 82.9° (Epoch: 20 April)

Event Time Altitude Azimuth Distance (km) Brightness Sun altitude
Rises 18:47:19 0° 177° (S) 3,719 6.9 -18.8°
Reaches altitude 10° 18:49:51 10° 174° (S) 2,775 6.2 -19.2°
Maximum altitude 18:56:10 67° 94° (E) 1,090 4.0 -20.3°
Drops below altitude 10° 19:02:31 10° 14° (NNE) 2,788 6.4 -21.4°
Sets 19:05:04 0° 11° (NNE) 3,738 7.1 -21.8°
